Location: *
(43.0167°S, 179.9000°E)
Time: 20:59:46
(UTC+00:00)

CORIOLIS - Pass Details

Date: 12 August 2024
Orbit: 817 x 836 km, 98.7° (Epoch: 19 September)

Event Time Altitude Azimuth Distance (km) Brightness Sun altitude
Rises 17:24:39 0° 14° (NNE) 3,378 7.6 -17.3°
Reaches altitude 10° 17:27:00 10° 13° (NNE) 2,450 6.8 -16.9°
Maximum altitude 17:32:27 85° 285° (WNW) 852 4.1 -15.9°
Drops below altitude 10° 17:37:58 10° 195° (SSW) 2,471 6.4 -14.9°
Sets 17:40:20 0° 194° (SSW) 3,410 7.1 -14.5°
